Hundvaag 1 weather for Dec 1991
Month no. 54
Obs.
Da.
Temp. Dew Point Precip. Wind
Speed
Wind gusts Cloud cover Press. Humidity Wind dir. Sunny OPT
01.12.1991 5,3   0,0                
02.12.1991 1,4   0,1             1  
03.12.1991 5,8   0,5                
04.12.1991 6,3   3,6             1  
05.12.1991 1,3   1,3             1  
06.12.1991 0,5   0,0             1  
07.12.1991 -2,4   0,0             1  
08.12.1991 2,8   0,0                
09.12.1991 1,8   0,0                
10.12.1991 5,2   0,5                
11.12.1991 3,4   0,0                
12.12.1991 4,0   0,0                
13.12.1991 7,3   6,7                
14.12.1991 5,5   9,0             1  
15.12.1991 6,0   4,2                
16.12.1991 5,1   7,0             1  
17.12.1991 5,3   2,2                
18.12.1991 4,0   23,4                
19.12.1991 3,3   7,3                
20.12.1991 3,5   9,0                
21.12.1991 3,0   6,1                
22.12.1991 0,2   2,1                
23.12.1991 5,8   2,5                
24.12.1991 2,8   4,0                
25.12.1991 3,7   1,9                
26.12.1991 6,2   31,1                
27.12.1991 3,5   1,6                
28.12.1991 6,0   2,4                
29.12.1991 5,4   6,5                
30.12.1991 5,0   2,5                
31.12.1991 4,8   1,1                
Avrg/Sum 3,9   136,5             7